sat.trackr.live / text

‹ back to catalog

STARLINK-31498

NORAD 59189 · 2024-045M

PAYLOAD ACTIVE UNKNOWN

§ Identity

Operator
Country
US
Launch date
2024-03-10
Launch site
AFETR
Launch vehicle
Mass (kg)
RCS (m²)

Purposes: comms

External: N2YO · Heavens-Above · Gunter

§ Orbital elements

Epoch: 2026-09-20T21:42:57.950496Z

Period
94.27 min
Inclination
43.0066°
Eccentricity
0.0002550
Mean motion
15.27576435 rev/d
Perigee alt
481.3 km
Apogee alt
484.8 km
Semi-major
6,861.2 km
B*
1.9502e-5
RAAN
70.3596°
Arg perigee
266.7600°
Mean anomaly
93.2960°
Rev number
14,301

§ Raw data

STARLINK-314981 59189U 24045M   26263.90483739  .00000274  00000+0  19502-4 0  99922 59189  43.0066  70.3596 0002550 266.7600  93.2960 15.27576435143015

JSON: /api/v1/satellites/59189 · /tle

For live sub-satellite position, see the globe view (requires WebGL).

§ Visibility from observer

Set your observer location to see the next 7 days of passes ≥ 10°. The values pass through the URL so the page stays shareable.

No JS? Fill the form by hand. The geolocation button needs JavaScript.